• In Hungary
  • List of Countries
  • For 7 days
  • Water Temperature
  • Satellite Maps
  • Weather Map
  • News
  • Weather Widgets
  • user-avatar
    Login

    Hourly Weather Jozefowice

    Today, 21 November, Tuesday

    Time Temperature Precipitation Wind Pressure Humidity
    00:00 +2°C° 0 mm 1 mps 755 mmHg 93%
    01:00 +2°C° 0 mm 1 mps 754 mmHg 94%
    02:00 +2°C° 0 mm 1 mps 754 mmHg 94%
    03:00 +2°C° 0 mm 1 mps 754 mmHg 95%
    04:00 +2°C° 0 mm 1 mps 754 mmHg 96%
    05:00 +2°C° 0 mm 1 mps 754 mmHg 96%
    06:00 +2°C° 0 mm 1 mps 754 mmHg 96%
    07:00 +2°C° 0 mm 1 mps 754 mmHg 96%
    08:00 +2°C° 0 mm 1 mps 754 mmHg 94%
    09:00 +2°C° 0 mm 2 mps 754 mmHg 91%
    10:00 +3°C° 0 mm 2 mps 754 mmHg 88%
    11:00 +3°C° 0 mm 2 mps 754 mmHg 86%
    12:00 +4°C° 0 mm 2 mps 754 mmHg 83%
    13:00 +5°C° 0 mm 1 mps 754 mmHg 81%
    14:00 +4°C° 0 mm 1 mps 754 mmHg 83%
    15:00 +4°C° 0 mm 1 mps 754 mmHg 86%
    16:00 +4°C° 0 mm 1 mps 754 mmHg 88%
    17:00 +3°C° 0 mm 1 mps 754 mmHg 89%
    18:00 +3°C° 0 mm 1 mps 754 mmHg 90%
    19:00 +3°C° 0 mm 1 mps 754 mmHg 92%
    20:00 +2°C° 0 mm 2 mps 754 mmHg 92%
    21:00 +1°C° 0 mm 2 mps 754 mmHg 93%
    22:00 +1°C° 0 mm 2 mps 754 mmHg 93%
    23:00 +1°C° 0 mm 2 mps 754 mmHg 93%

    Tomorrow, 22 November, Wednesday

    Time Temperature Precipitation Wind Pressure Humidity
    00:00 +1°C° 0 mm 2 mps 754 mmHg 93%
    01:00 +1°C° 0 mm 2 mps 754 mmHg 93%
    02:00 0°C° 0 mm 3 mps 753 mmHg 92%
    03:00 0°C° 0 mm 3 mps 753 mmHg 92%
    04:00 -1°C° 0 mm 4 mps 753 mmHg 91%
    05:00 0°C° 0.3 mm 4 mps 752 mmHg 91%
    06:00 0°C° 0.3 mm 4 mps 752 mmHg 91%
    07:00 +1°C° 0.3 mm 5 mps 751 mmHg 90%
    08:00 +1°C° 1.1 mm 5 mps 751 mmHg 92%
    09:00 +3°C° 1.1 mm 4 mps 751 mmHg 93%
    10:00 +3°C° 1.1 mm 4 mps 751 mmHg 94%
    11:00 +4°C° 0.4 mm 4 mps 751 mmHg 94%
    12:00 +4°C° 0.4 mm 3 mps 751 mmHg 93%
    13:00 +5°C° 0.4 mm 3 mps 751 mmHg 93%
    14:00 +5°C° 0.1 mm 3 mps 751 mmHg 93%
    15:00 +5°C° 0.1 mm 3 mps 751 mmHg 94%
    16:00 +5°C° 0.1 mm 3 mps 751 mmHg 95%
    17:00 +5°C° 0 mm 3 mps 752 mmHg 95%
    18:00 +7°C° 0 mm 3 mps 752 mmHg 95%
    19:00 +7°C° 0 mm 3 mps 752 mmHg 95%
    20:00 +7°C° 0 mm 3 mps 752 mmHg 95%
    21:00 +7°C° 0 mm 3 mps 752 mmHg 95%
    22:00 +7°C° 0 mm 3 mps 753 mmHg 95%
    23:00 +5°C° 0 mm 3 mps 753 mmHg 95%

    Day after tomorrow, 23 November, Thursday

    Time Temperature Precipitation Wind Pressure Humidity
    00:00 +5°C° 0 mm 3 mps 753 mmHg 95%
    01:00 +5°C° 0 mm 3 mps 753 mmHg 94%
    02:00 +4°C° 0 mm 3 mps 753 mmHg 93%
    03:00 +4°C° 0 mm 3 mps 753 mmHg 92%
    04:00 +4°C° 0 mm 3 mps 753 mmHg 91%
    05:00 +4°C° 0 mm 3 mps 753 mmHg 90%
    06:00 +4°C° 0 mm 3 mps 753 mmHg 88%
    07:00 +3°C° 0 mm 4 mps 753 mmHg 87%
    08:00 +4°C° 0 mm 4 mps 753 mmHg 82%
    09:00 +5°C° 0 mm 4 mps 753 mmHg 77%
    10:00 +6°C° 0 mm 4 mps 753 mmHg 72%
    11:00 +7°C° 0 mm 5 mps 753 mmHg 69%
    12:00 +8°C° 0 mm 5 mps 753 mmHg 65%
    13:00 +9°C° 0 mm 5 mps 752 mmHg 61%
    14:00 +8°C° 0 mm 4 mps 753 mmHg 64%
    15:00 +8°C° 0 mm 4 mps 753 mmHg 67%
    16:00 +7°C° 0 mm 4 mps 753 mmHg 70%
    17:00 +7°C° 0 mm 4 mps 753 mmHg 71%
    18:00 +7°C° 0 mm 4 mps 754 mmHg 73%
    19:00 +7°C° 0 mm 4 mps 754 mmHg 74%
    20:00 +7°C° 0 mm 4 mps 754 mmHg 75%
    21:00 +7°C° 0 mm 4 mps 755 mmHg 77%
    22:00 +6°C° 0 mm 4 mps 755 mmHg 79%
    23:00 +6°C° 0 mm 4 mps 755 mmHg 81%

    24 November, Friday

    Time Temperature Precipitation Wind Pressure Humidity
    00:00 +6°C° 0 mm 4 mps 756 mmHg 84%
    01:00 +6°C° 0 mm 4 mps 756 mmHg 86%
    02:00 +6°C° 0 mm 4 mps 756 mmHg 88%
    03:00 +7°C° 0 mm 3 mps 757 mmHg 90%
    04:00 +7°C° 0 mm 3 mps 757 mmHg 92%
    05:00 +5°C° 0 mm 3 mps 757 mmHg 93%
    06:00 +5°C° 0 mm 3 mps 757 mmHg 93%
    07:00 +5°C° 0 mm 3 mps 757 mmHg 94%
    08:00 +6°C° 0 mm 4 mps 757 mmHg 91%
    09:00 +7°C° 0 mm 4 mps 757 mmHg 88%
    10:00 +7°C° 0 mm 4 mps 757 mmHg 85%
    11:00 +8°C° 0 mm 4 mps 757 mmHg 82%
    12:00 +9°C° 0 mm 5 mps 757 mmHg 78%
    13:00 +10°C° 0 mm 5 mps 756 mmHg 75%
    14:00 +9°C° 0 mm 5 mps 756 mmHg 77%
    15:00 +10°C° 0 mm 4 mps 756 mmHg 80%
    16:00 +8°C° 0 mm 4 mps 756 mmHg 83%
    17:00 +8°C° 0 mm 4 mps 756 mmHg 83%
    18:00 +8°C° 0 mm 4 mps 756 mmHg 83%
    19:00 +8°C° 0 mm 5 mps 756 mmHg 83%
    20:00 +8°C° 0 mm 5 mps 756 mmHg 83%
    21:00 +8°C° 0 mm 5 mps 756 mmHg 83%
    22:00 +8°C° 0 mm 5 mps 755 mmHg 83%
    23:00 +7°C° 0 mm 5 mps 755 mmHg 83%

    25 November, Saturday

    Time Temperature Precipitation Wind Pressure Humidity
    00:00 +7°C° 0 mm 4 mps 755 mmHg 83%
    01:00 +7°C° 0 mm 4 mps 755 mmHg 83%
    02:00 +7°C° 0 mm 5 mps 755 mmHg 82%
    03:00 +7°C° 0 mm 5 mps 755 mmHg 81%
    04:00 +7°C° 0 mm 5 mps 754 mmHg 80%
    05:00 +7°C° 0 mm 5 mps 754 mmHg 80%
    06:00 +6°C° 0 mm 5 mps 754 mmHg 81%
    07:00 +6°C° 0 mm 5 mps 753 mmHg 81%
    08:00 +7°C° 0 mm 5 mps 753 mmHg 79%
    09:00 +7°C° 0 mm 5 mps 753 mmHg 76%
    10:00 +8°C° 0 mm 6 mps 752 mmHg 74%
    11:00 +8°C° 0 mm 6 mps 752 mmHg 72%
    12:00 +9°C° 0 mm 6 mps 751 mmHg 70%
    13:00 +9°C° 0 mm 6 mps 751 mmHg 68%
    14:00 +9°C° 0 mm 5 mps 751 mmHg 72%
    15:00 +8°C° 0 mm 4 mps 751 mmHg 75%
    16:00 +8°C° 0 mm 4 mps 751 mmHg 79%
    17:00 +8°C° 0.3 mm 4 mps 752 mmHg 80%
    18:00 +7°C° 0.3 mm 4 mps 752 mmHg 82%
    19:00 +7°C° 0.3 mm 4 mps 753 mmHg 83%
    20:00 +7°C° 1 mm 4 mps 753 mmHg 82%
    21:00 +6°C° 1 mm 4 mps 754 mmHg 80%
    22:00 +6°C° 1 mm 4 mps 755 mmHg 79%
    23:00 +5°C° 0.2 mm 3 mps 755 mmHg 80%

    26 November, Sunday

    Time Temperature Precipitation Wind Pressure Humidity
    00:00 +5°C° 0.2 mm 3 mps 755 mmHg 81%
    01:00 +5°C° 0.2 mm 3 mps 756 mmHg 82%
    02:00 +5°C° 0 mm 3 mps 756 mmHg 83%
    03:00 +4°C° 0 mm 3 mps 756 mmHg 84%
    04:00 +4°C° 0 mm 3 mps 756 mmHg 85%
    05:00 +3°C° 0 mm 3 mps 757 mmHg 85%
    06:00 +3°C° 0 mm 3 mps 757 mmHg 86%
    07:00 +2°C° 0 mm 3 mps 757 mmHg 87%
    08:00 +2°C° 0 mm 3 mps 757 mmHg 83%
    09:00 +3°C° 0 mm 4 mps 757 mmHg 80%
    10:00 +2°C° 0 mm 5 mps 757 mmHg 76%
    11:00 +3°C° 0 mm 5 mps 757 mmHg 73%
    12:00 +3°C° 0 mm 5 mps 757 mmHg 70%
    13:00 +5°C° 0 mm 5 mps 757 mmHg 66%
    14:00 +4°C° 0 mm 4 mps 757 mmHg 70%
    15:00 +4°C° 0 mm 4 mps 757 mmHg 74%
    16:00 +3°C° 0 mm 3 mps 757 mmHg 77%
    17:00 +3°C° 0 mm 4 mps 757 mmHg 78%
    18:00 +1°C° 0 mm 4 mps 757 mmHg 78%
    19:00 +1°C° 0 mm 4 mps 757 mmHg 79%
    20:00 +1°C° 0 mm 5 mps 756 mmHg 79%
    21:00 +1°C° 0 mm 5 mps 756 mmHg 79%
    22:00 0°C° 0 mm 5 mps 756 mmHg 79%
    23:00 +1°C° 0 mm 5 mps 756 mmHg 80%
    Show more